Regional Weather Roundup
Issued by NWS Green Bay, WI

Home | Current Version | Previous Version | Text Only | Print | Product List | Glossary On
Versions: 1 2 3 4 5 6 7 8 9 10 11 12 13 14 15 16 17 18 19 20 21 22 23 24 25 26 27 28 29 30 31 32 33 34 35 36 37 38 39 40 41 42 43 44 45 46 47 48 49 50
000
ASUS43 KGRB 212310
RWRGRB

NORTH-CENTRAL AND NORTHEAST WISCONSIN REGIONAL WEATHER ROUNDUP
NATIONAL WEATHER SERVICE GREEN BAY WI
500 PM CST SUN DEC 21 2014

WIZ005-009-010>012-018-019-220000-
NORTH CENTRAL WISCONSIN

CITY           SKY/WX    TMP DP  RH WIND       PRES   REMARKS
IRONWOOD       CLOUDY    34  30  86 S10G16    29.78F
MANITOWISH WTR LGT SNOW  32  32 100 S9        29.82F
ARBOR VITAE    LGT SNOW  34  32  93 S10       29.84S
EAGLE RIVER    LGT SNOW  32  32 100 S10G16    29.86S
LAND O LAKES   LGT SNOW  32  32  99 S10       29.86F
RHINELANDER    LGT SNOW  32  30  92 SE10G20   29.87S FOG
PHILLIPS       LGT SNOW  32  32  99 S10       29.81F
ANTIGO         LGT SNOW  31  31 100 S10       29.91S
TOMAHAWK       LGT RAIN  32  31  96 CALM      29.87S
MERRILL        LGT SNOW  33  33 100 S8        29.88S
$$

WIZ013-073-220000-
NORTHEAST WISCONSIN

CITY           SKY/WX    TMP DP  RH WIND       PRES   REMARKS
IRON MOUNTAIN  LGT SNOW  32  30  92 SE10      29.94S FOG
MARINETTE      CLOUDY    36  32  87 S12       30.00S
OCONTO         CLOUDY    34  33  94 S5        30.01S
$$

WIZ017-030-035>037-045-220000-
CENTRAL WISCONSIN

CITY           SKY/WX    TMP DP  RH WIND       PRES   REMARKS
MEDFORD        LGT RAIN  32  32 100 SE14G20   29.84F
WAUSAU         CLOUDY    33  32  96 S14       29.89S FOG
MOSINEE        CLOUDY    34  34 100 SE13G18   29.91S FOG
MARSHFIELD     CLOUDY    34  32  92 S13       29.87F FOG
WISC RAPIDS    CLOUDY    34  31  88 SE8       29.93S FOG
STEVENS POINT  CLOUDY    32  31  96 S10       29.93S FOG
WAUPACA        CLOUDY    36  33  87 SE8       29.96F FOG
SHAWANO        CLOUDY    36  32  85 S5        29.98S FOG
CLINTONVILLE   CLOUDY    34  32  93 S8        29.97F
$$

WIZ038-039-048-051-220000-
FOX VALLEY

CITY           SKY/WX    TMP DP  RH WIND       PRES   REMARKS
NWS GREEN BAY  CLOUDY    36  32  85 S14       30.00F
APPLETON       CLOUDY    34  34 100 S14       29.99S FOG
OSHKOSH        CLOUDY    35  31  85 S10       29.99R
FOND DU LAC    CLOUDY    35  30  82 S13       29.99S
$$

WIZ022-050-052-220000-
EAST CENTRAL WISCONSIN

CITY           SKY/WX    TMP DP  RH WIND       PRES   REMARKS
STURGEON BAY   CLOUDY    37  32  81 S18G24    30.03S
MANITOWOC      CLOUDY    36  34  92 S14       30.03F
SHEBOYGAN      CLOUDY    35  30  82 S13       30.03S
$$

LMZ563-521-522-541>543-220000-
LAKESHORE

STATION/POSITION TIME  TEMP    WIND        PRES    VSBY  WAVE
                       AIR SEA DIR/SP/G                  HT/PER
                 (UTC) (F)     (DEG/KT/KT) (MB)    (MI)  (FT/S)
SHEBOYGAN LKSHOR 2300   37 38  180/ 25/ 26 1017.7F
KEWAUNEE LKSHORE 2300   36     190/ 16/ 18 1016.1S
ALGOMA MARINA    2200          210/ 23/ 27   N/A
TWO RIVERS CG    2200   36                 1017.2      6   3
NORTHPORT PIER   2300   38     160/  9/ 20 1016.9S
SISTER BAY LKSHO 2300          190/ 15/ 19   N/A
STURGEON BAY CG  2200   37     190/ 13     1018.2      6   3
CHAMBERS ISLAND  2300   37     150/  7/ 13 1016.3F
MENOMINEE LKSHOR 2300   36     170/ 10/ 15 1016.6R
$$


USA.gov is the U.S. government's official web portal to all federal, state and local government web resources and services.